Liberty, KS

9:28 PM CDT on July 29, 2016 (GMT -0500)
Coffeyville Municipal

Weather History for KCFV - August, 2013

Change the Weather History Date:

Tuesday, August 13, 2013

  Actual Average Record
Temperature  
Mean Temperature 76 °F -  
Max Temperature 82 °F 89 °F 107 °F (2010)
Min Temperature 70 °F 65 °F 48 °F (2004)
Cooling Degree Days 12    
Growing Degree Days 26 (Base 50)    
Moisture  
Dew Point 71 °F    
Average Humidity 85    
Maximum Humidity 94    
Minimum Humidity 62    
Precipitation  
Precipitation 0.03 in - - ()
Sea Level Pressure  
Sea Level Pressure 30.02 in    
Wind  
Wind Speed 3 mph (NE)    
Max Wind Speed 10 mph    
Max Gust Speed -    
Visibility 10 miles    
Events Rain , Thunderstorm    
Averages and records for this station are not official NWS values.
T = Trace of Precipitation, MM = Missing Value Source: NWS Daily Summary

Daily Weather History Graph

Daily Weather History Graph

Search for Another Location

Airport or City:

Trip Planner

Search our weather history database for the weather conditions in past years. The results will help you decide how hot, cold, wet, or windy it might be!

Date:

Astronomy

Aug. 13, 2013 Rise Set
Actual Time 6:37 AM CDT 8:16 PM CDT
Civil Twilight 6:09 AM CDT 8:43 PM CDT
Nautical Twilight 5:36 AM CDT 9:17 PM CDT
Astronomical Twilight 5:00 AM CDT 9:52 PM CDT
Moon 1:22 PM CDT (8/13) No Moon Set
Length of Visible Light 14h 34m
Length of Day
13h 38m
Waxing Crescent, 42% of the Moon is Illuminated
Aug 13
Waxing Crescent
Aug 14
First Quarter
Aug 20
Full
Aug 28
Last Quarter
Sep 5
New

Hourly Weather History & Observations

Time (CDT) Temp. Heat Index Dew Point Humidity Pressure Visibility Wind Dir Wind Speed Gust Speed Precip Events Conditions
12:52 AM 77.0 °F - 73.9 °F 90% 29.98 in 10.0 mi Calm Calm - N/A   Clear
1:52 AM 75.9 °F - 73.9 °F 94% 29.99 in 10.0 mi Calm Calm - N/A   Clear
2:48 AM 75.2 °F - 73.4 °F 94% 30.01 in 10.0 mi Calm Calm - N/A   Mostly Cloudy
2:52 AM 75.9 °F - 73.9 °F 94% 29.99 in 10.0 mi Calm Calm - N/A   Overcast
3:05 AM 75.2 °F - 73.4 °F 94% 30.01 in 10.0 mi Calm Calm - N/A   Mostly Cloudy
3:21 AM 75.2 °F - 73.4 °F 94% 30.01 in 10.0 mi Calm Calm - 0.01 in Rain , Thunderstorm Light Rain
3:36 AM 75.2 °F - 73.4 °F 94% 30.01 in 10.0 mi Calm Calm - 0.01 in Rain Light Rain
3:49 AM 75.2 °F - 73.4 °F 94% 30.01 in 10.0 mi Calm Calm - 0.01 in Rain , Thunderstorm Light Rain
3:52 AM 75.9 °F - 73.0 °F 91% 29.99 in 10.0 mi Calm Calm - 0.01 in Rain , Thunderstorm Light Rain
4:04 AM 75.2 °F - 73.4 °F 94% 30.00 in 9.0 mi WNW 5.8 mph - 0.00 in Rain , Thunderstorm Light Rain
4:24 AM 73.4 °F - 71.6 °F 94% 30.01 in 10.0 mi NW 8.1 mph - 0.00 in Rain , Thunderstorm Light Rain
4:39 AM 73.4 °F - 71.6 °F 94% 30.00 in 10.0 mi North 5.8 mph - 0.00 in   Overcast
4:52 AM 73.9 °F - 72.0 °F 93% 29.98 in 10.0 mi NNE 6.9 mph - 0.00 in   Mostly Cloudy
5:01 AM 73.4 °F - 71.6 °F 94% 30.00 in 10.0 mi North 8.1 mph - N/A   Scattered Clouds
5:52 AM 73.9 °F - 71.1 °F 91% 29.99 in 10.0 mi Calm Calm - N/A   Partly Cloudy
6:52 AM 73.0 °F - 71.1 °F 93% 30.00 in 10.0 mi Calm Calm - N/A   Overcast
7:52 AM 73.9 °F - 72.0 °F 93% 30.01 in 10.0 mi NE 5.8 mph - N/A   Overcast
8:52 AM 75.0 °F - 71.1 °F 87% 30.02 in 10.0 mi ENE 5.8 mph - N/A   Overcast
9:52 AM 75.9 °F - 72.0 °F 87% 30.03 in 10.0 mi East 4.6 mph - N/A   Scattered Clouds
10:05 AM 75.2 °F - 71.6 °F 89% 30.05 in 10.0 mi ENE 6.9 mph - N/A   Mostly Cloudy
10:34 AM 77.0 °F - 71.6 °F 83% 30.06 in 10.0 mi ENE 4.6 mph - N/A   Overcast
10:52 AM 77.0 °F - 72.0 °F 84% 30.04 in 10.0 mi ENE 5.8 mph - N/A   Overcast
11:03 AM 77.0 °F - 71.6 °F 83% 30.06 in 10.0 mi ENE 9.2 mph - N/A   Overcast
11:11 AM 77.0 °F - 71.6 °F 83% 30.06 in 10.0 mi NE 8.1 mph - N/A   Overcast
11:52 AM 78.1 °F - 72.0 °F 81% 30.05 in 10.0 mi ENE 5.8 mph - 0.00 in   Overcast
12:52 PM 78.1 °F - 72.0 °F 81% 30.05 in 9.0 mi ENE 6.9 mph - 0.01 in Rain Light Rain
1:52 PM 79.0 °F - 71.1 °F 77% 30.04 in 10.0 mi ENE 9.2 mph - 0.01 in   Partly Cloudy
2:52 PM 80.1 °F 83.2 °F 70.0 °F 71% 30.03 in 10.0 mi ENE 10.4 mph - 0.00 in Rain Light Rain
3:52 PM 81.0 °F 83.3 °F 66.9 °F 62% 30.01 in 10.0 mi ENE 9.2 mph - 0.00 in   Mostly Cloudy
5:52 PM 81.0 °F 83.8 °F 68.0 °F 65% 30.00 in 10.0 mi ENE 8.1 mph - N/A   Clear
6:52 PM 80.1 °F 82.1 °F 66.0 °F 62% 30.00 in 10.0 mi NE 8.1 mph - N/A   Scattered Clouds
7:52 PM 77.0 °F - 66.9 °F 71% 30.02 in 10.0 mi North 4.6 mph - N/A   Clear
8:52 PM 75.9 °F - 64.0 °F 67% 30.04 in 10.0 mi NE 6.9 mph - N/A   Clear
9:52 PM 73.9 °F - 63.0 °F 68% 30.05 in 10.0 mi East 6.9 mph - 0.00 in   Partly Cloudy
10:52 PM 72.0 °F - 64.0 °F 76% 30.08 in 10.0 mi NNE 4.6 mph - N/A   Clear
11:52 PM 70.0 °F - 64.9 °F 84% 30.08 in 10.0 mi ENE 3.5 mph - N/A   Clear